Weather History for KHOT - October, 2012

Change the Weather History Date:

Sunday, October 7, 2012

  Actual Average Record
Temperature  
Mean Temperature 50 °F -  
Max Temperature 57 °F 77 °F 94 °F (1956)
Min Temperature 44 °F 52 °F 37 °F (2001)
Degree Days  
Heating Degree Days 14    
Moisture  
Dew Point 38 °F    
Average Humidity 65    
Maximum Humidity 83    
Minimum Humidity 39    
Precipitation  
Precipitation 0.00 in - - ()
Sea Level Pressure  
Sea Level Pressure 30.24 in    
Wind  
Wind Speed 3 mph (ENE)    
Max Wind Speed 8 mph    
Max Gust Speed -    
Visibility 10 miles    
Events Rain    
Averages and records for this station are not official NWS values.
T = Trace of Precipitation, MM = Missing Value Source: NWS Daily Summary

Daily Weather History Graph

Daily Weather History Graph

Search for Another Location

Airport or City:

Trip Planner

Search our weather history database for the weather conditions in past years. The results will help you decide how hot, cold, wet, or windy it might be!

Date:

Astronomy

Oct. 07, 2012 Rise Set
Actual Time 7:11 AM CDT 6:47 PM CDT
Civil Twilight 6:46 AM CDT 7:12 PM CDT
Nautical Twilight 6:17 AM CDT 7:41 PM CDT
Astronomical Twilight 5:48 AM CDT 8:10 PM CDT
Moon No Moon Rise 1:39 PM CDT (10/7)
Length of Visible Light 12h 26m
Length of Day
11h 35m
Waning Gibbous, 56% of the Moon is Illuminated
Oct 7
Waning Gibbous
Oct 8
Last Quarter
Oct 15
New
Oct 21
First Quarter
Oct 29
Full

Hourly Weather History & Observations

Time (CDT) Temp. Windchill Dew Point Humidity Pressure Visibility Wind Dir Wind Speed Gust Speed Precip Events Conditions
12:53 AM 46.0 °F 44.8 °F 41.0 °F 83% 30.24 in 10.0 mi NNW 3.5 mph - N/A   Overcast
1:53 AM 46.9 °F - 41.0 °F 80% 30.25 in 10.0 mi Variable 3.5 mph - N/A   Overcast
2:53 AM 46.0 °F 43.1 °F 39.9 °F 79% 30.26 in 10.0 mi North 5.8 mph - N/A   Overcast
3:53 AM 46.0 °F - 39.0 °F 76% 30.25 in 10.0 mi Calm Calm - N/A   Overcast
4:53 AM 46.0 °F 44.8 °F 37.0 °F 71% 30.26 in 10.0 mi Variable 3.5 mph - N/A   Scattered Clouds
5:53 AM 45.0 °F - 36.0 °F 71% 30.27 in 10.0 mi Calm Calm - N/A   Clear
6:53 AM 44.1 °F - 35.1 °F 71% 30.28 in 10.0 mi Calm Calm - N/A   Clear
7:53 AM 44.1 °F 42.5 °F 34.0 °F 68% 30.28 in 10.0 mi Variable 3.5 mph - N/A   Clear
8:53 AM 46.0 °F 41.9 °F 35.1 °F 66% 30.29 in 10.0 mi NE 8.1 mph - N/A   Clear
9:53 AM 48.9 °F - 34.0 °F 56% 30.30 in 10.0 mi East 4.6 mph - N/A   Clear
10:53 AM 51.1 °F - 35.1 °F 54% 30.29 in 10.0 mi East 3.5 mph - N/A   Clear
11:53 AM 53.1 °F - 33.1 °F 47% 30.29 in 10.0 mi Variable 3.5 mph - N/A   Clear
12:53 PM 53.1 °F - 33.1 °F 47% 30.26 in 10.0 mi Variable 5.8 mph - N/A   Clear
1:53 PM 55.0 °F - 34.0 °F 45% 30.24 in 10.0 mi Variable 4.6 mph - N/A   Clear
2:53 PM 57.0 °F - 32.0 °F 39% 30.22 in 10.0 mi NE 4.6 mph - N/A   Clear
3:53 PM 55.9 °F - 34.0 °F 44% 30.19 in 10.0 mi East 5.8 mph - 0.00 in   Mostly Cloudy
4:53 PM 55.0 °F - 35.1 °F 47% 30.19 in 10.0 mi East 4.6 mph - 0.00 in Rain Light Rain
5:53 PM 53.1 °F - 39.9 °F 61% 30.20 in 10.0 mi South 4.6 mph - 0.00 in Rain Light Rain
6:53 PM 53.1 °F - 41.0 °F 64% 30.19 in 10.0 mi Calm Calm - 0.00 in   Overcast
7:53 PM 52.0 °F - 43.0 °F 71% 30.20 in 10.0 mi Calm Calm - N/A   Overcast
8:53 PM 51.1 °F - 45.0 °F 80% 30.20 in 10.0 mi Calm Calm - 0.00 in   Overcast
9:53 PM 51.1 °F - 45.0 °F 80% 30.21 in 10.0 mi Calm Calm - N/A   Overcast
10:53 PM 51.1 °F - 44.1 °F 77% 30.21 in 10.0 mi Calm Calm - 0.00 in   Overcast
11:53 PM 51.1 °F - 44.1 °F 77% 30.22 in 10.0 mi Variable 3.5 mph - N/A   Overcast